$Date,$Time,DM0201B,DM0203B,DM0205B,DM0207B,DM0209B
09/08/99,00:00:01,28,36,-23,0,0
09/08/99,00:05:01,28,36,-23,116,966
09/08/99,00:10:01,28,36,-23,118,966
09/08/99,00:15:01,17,36,-23,120,966
09/08/99,00:20:01,17,36,-23,120,966
09/08/99,00:25:01,27,46,-23,118,966
09/08/99,00:30:01,17,46,-23,118,966
09/08/99,00:35:01,17,56,-23,116,966
09/08/99,00:40:01,7,56,-23,116,966
09/08/99,00:45:01,7,56,-23,114,966
09/08/99,00:50:01,7,56,-23,116,966
09/08/99,00:55:01,7,56,-23,114,966
09/08/99,01:00:01,7,56,-23,114,966
09/08/99,01:05:01,23,67,-23,114,966
09/08/99,01:10:01,23,87,-23,116,966
09/08/99,01:15:01,13,87,-23,116,966
09/08/99,01:20:01,23,87,-23,118,966
09/08/99,01:25:01,12,87,-23,118,966
09/08/99,01:30:01,12,87,-23,118,966
09/08/99,01:35:01,2,87,-23,120,966
09/08/99,01:40:01,2,87,-23,122,966
09/08/99,01:45:01,2,87,-23,120,966
09/08/99,01:50:01,2,87,-23,120,966
09/08/99,01:55:01,2,87,-23,118,966
09/08/99,02:00:01,2,87,-23,118,966
09/08/99,02:05:01,2,87,-21,118,966
09/08/99,02:10:01,2,49,-21,114,966
09/08/99,02:15:01,12,38,-19,114,966
09/08/99,02:20:01,12,24,-19,114,966
09/08/99,02:25:01,2,24,-19,112,966
09/08/99,02:30:01,2,24,-17,110,966
09/08/99,02:35:01,2,24,-17,108,966
09/08/99,02:40:01,2,24,-17,108,966
09/08/99,02:45:01,2,24,-17,106,966
09/08/99,02:50:01,2,24,-15,104,966
09/08/99,02:55:01,2,24,-15,102,966
09/08/99,03:00:01,2,24,-15,100,966
09/08/99,03:05:01,13,24,-15,98,966
09/08/99,03:10:01,3,24,-15,96,966
09/08/99,03:15:01,33,24,-17,92,966
09/08/99,03:20:01,33,24,-17,90,966
09/08/99,03:25:01,33,24,-17,86,966
09/08/99,03:30:01,22,24,-17,82,966
09/08/99,03:35:01,12,24,-17,78,966
09/08/99,03:40:01,12,24,-17,78,966
09/08/99,03:45:01,0,24,-17,76,966
09/08/99,03:50:01,0,24,-15,72,966
09/08/99,03:55:01,0,24,-15,68,966
09/08/99,04:00:01,0,24,-15,64,966
09/08/99,04:05:01,0,24,-15,56,966
09/08/99,04:10:01,0,24,-15,48,966
09/08/99,04:15:01,0,24,-15,40,966
09/08/99,04:20:01,13,24,-17,32,966
09/08/99,04:25:01,24,24,-17,26,966
09/08/99,04:30:01,24,24,-17,24,966
09/08/99,04:35:01,24,24,-17,22,966
09/08/99,04:40:01,24,24,-19,18,966
09/08/99,04:45:01,14,24,-19,14,966
09/08/99,04:50:01,14,24,-19,12,966
09/08/99,04:55:01,3,47,-19,12,966
09/08/99,05:00:01,3,47,-19,10,966
09/08/99,05:05:01,3,47,-19,8,966
09/08/99,05:10:01,3,47,-19,8,966
09/08/99,05:15:01,3,47,-19,8,966
09/08/99,05:20:01,3,47,-21,6,966
09/08/99,05:25:01,14,47,-21,6,966
09/08/99,05:30:01,24,34,-21,4,966
09/08/99,05:35:01,22,22,-21,4,966
09/08/99,05:40:01,36,25,-21,4,966
09/08/99,05:45:01,33,1,-23,2,966
09/08/99,05:50:01,16,18,-23,2,966
09/08/99,05:55:01,17,158,-23,2,966
09/08/99,06:00:01,7,158,-23,2,966
09/08/99,06:05:01,7,169,-23,2,966
09/08/99,06:10:01,8,150,-23,0,966
09/08/99,06:15:01,8,150,-23,0,966
09/08/99,06:20:01,8,150,-23,0,966
09/08/99,06:25:01,8,150,-23,0,966
09/08/99,06:30:01,8,150,-23,0,966
09/08/99,06:35:01,8,150,-23,0,966
09/08/99,06:40:01,8,171,-23,0,966
09/08/99,06:45:01,8,171,-23,0,966
09/08/99,06:50:01,8,171,-23,0,966
09/08/99,06:55:01,8,171,-23,0,966
09/08/99,07:00:01,8,54,-23,0,966
09/08/99,07:05:01,38,33,-23,0,966
09/08/99,07:10:01,38,33,-23,0,966
09/08/99,07:15:01,38,33,-23,0,966
09/08/99,07:20:01,38,33,-23,0,966
09/08/99,07:25:01,38,33,-23,0,966
09/08/99,07:30:01,38,33,-23,0,966
09/08/99,07:35:01,38,33,-23,0,966
09/08/99,07:40:01,41,33,-23,0,966
09/08/99,07:45:01,41,33,-23,0,966
09/08/99,07:50:01,41,33,-23,0,966
09/08/99,07:55:01,52,33,-23,0,966
09/08/99,08:00:01,52,33,-23,0,966
09/08/99,08:05:01,30,33,-23,0,966
09/08/99,08:10:01,30,33,-23,0,966
09/08/99,08:15:01,30,33,-23,0,966
09/08/99,08:20:01,40,33,-23,0,966
09/08/99,08:25:01,40,33,-23,0,966
09/08/99,08:30:01,30,33,-23,0,966
09/08/99,08:35:01,40,33,-23,0,966
09/08/99,08:40:01,40,33,-23,0,966
09/08/99,08:45:01,40,33,-23,0,966
09/08/99,08:50:01,41,33,-23,0,966
09/08/99,08:55:01,41,33,-23,0,966
09/08/99,09:00:01,41,33,-23,0,966
09/08/99,09:05:01,41,33,-23,0,966
09/08/99,09:10:01,41,33,-23,0,966
09/08/99,09:15:01,41,33,-23,0,966
09/08/99,09:20:01,41,33,-23,0,966
09/08/99,09:25:01,30,33,-23,0,966
09/08/99,09:30:01,30,33,-23,0,966
09/08/99,09:35:01,20,33,-23,0,966
09/08/99,09:40:01,20,33,-23,0,966
09/08/99,09:45:01,20,33,-23,0,966
09/08/99,09:50:01,20,33,-23,0,966
09/08/99,09:55:01,20,33,-23,0,966
09/08/99,10:00:01,0,50,-23,0,966
09/08/99,10:05:01,0,82,-23,0,966
09/08/99,10:10:01,0,110,-23,0,966
09/08/99,10:15:01,0,110,-23,0,966
09/08/99,10:20:01,0,110,-23,0,966
09/08/99,10:25:01,0,110,-23,0,966
09/08/99,10:30:01,0,70,-23,0,966
09/08/99,10:35:01,0,70,-23,0,966
09/08/99,10:40:01,0,70,-23,0,966
09/08/99,10:45:01,0,70,-23,0,966
09/08/99,10:50:01,0,70,-23,0,966
09/08/99,10:55:01,0,70,-23,0,966
09/08/99,11:00:01,0,70,-23,0,966
09/08/99,11:05:01,0,70,-23,0,966
09/08/99,11:10:01,0,70,-23,0,966
09/08/99,11:15:01,0,70,-23,0,966
09/08/99,11:20:01,0,70,-23,0,966
09/08/99,11:25:01,0,70,-23,0,966
09/08/99,11:30:01,0,70,-23,0,966
09/08/99,11:35:01,0,70,-23,0,966
09/08/99,11:40:01,0,70,-23,0,966
09/08/99,11:45:01,0,70,-23,0,966
09/08/99,11:50:01,0,70,-23,0,966
09/08/99,11:55:01,0,70,-23,0,966
09/08/99,12:00:01,0,70,-23,0,966
09/08/99,12:05:01,0,156,-23,0,966
09/08/99,12:10:01,0,166,-23,0,966
09/08/99,12:15:01,0,166,-23,0,966
09/08/99,12:20:01,0,166,-23,0,966
09/08/99,12:25:01,0,166,-23,0,966
09/08/99,12:30:01,0,166,-23,0,966
09/08/99,12:35:01,11,166,-23,0,966
09/08/99,12:40:01,11,166,-23,0,966
09/08/99,12:45:01,1,166,-23,0,966
09/08/99,12:50:01,11,166,-23,0,966
09/08/99,12:55:01,22,193,-23,0,966
09/08/99,13:00:01,22,193,-23,0,966
09/08/99,13:05:01,22,193,-23,0,966
09/08/99,13:10:01,22,193,-23,0,966
09/08/99,13:15:01,2,193,-23,0,966
09/08/99,13:20:01,15,193,-23,0,966
09/08/99,13:25:01,5,193,-23,0,966
09/08/99,13:30:01,5,193,-23,0,966
09/08/99,13:35:01,5,193,-23,0,966
09/08/99,13:40:01,5,193,-23,0,966
09/08/99,13:45:01,5,193,-23,0,966
09/08/99,13:50:01,16,193,-23,0,966
09/08/99,13:55:01,16,193,-23,0,966
09/08/99,14:00:01,6,193,-23,0,966
09/08/99,14:05:01,6,193,-23,0,966
09/08/99,14:10:01,6,193,-23,0,966
09/08/99,14:15:01,6,193,-23,0,968
09/08/99,14:20:01,6,193,-23,0,968
09/08/99,14:25:01,6,193,-23,0,968
09/08/99,14:30:01,6,193,-23,0,968
09/08/99,14:35:01,6,193,-23,0,968
09/08/99,14:40:01,6,193,-23,0,968
09/08/99,14:45:01,6,275,-23,0,968
09/08/99,14:50:01,17,318,-23,0,968
09/08/99,14:55:01,37,331,-23,0,968
09/08/99,15:00:01,24,331,-23,0,968
09/08/99,15:05:01,1,317,-23,0,968
09/08/99,15:10:01,12,307,-23,0,968
09/08/99,15:15:01,39,319,-23,0,968
09/08/99,15:20:01,43,319,-23,0,968
09/08/99,15:25:01,33,308,-23,0,968
09/08/99,15:30:01,19,308,-23,0,968
09/08/99,15:35:01,13,308,-23,0,968
09/08/99,15:40:01,35,295,-23,0,968
09/08/99,15:45:01,35,295,-23,0,968
09/08/99,15:50:01,25,295,-23,0,968
09/08/99,15:55:01,35,238,-23,0,968
09/08/99,16:00:01,34,238,-23,0,968
09/08/99,16:05:01,20,214,-23,0,968
09/08/99,16:10:01,40,203,-23,0,968
09/08/99,16:15:01,51,179,-23,0,968
09/08/99,16:20:01,50,179,-23,0,968
09/08/99,16:25:01,38,189,-23,0,968
09/08/99,16:30:01,48,178,-23,0,968
09/08/99,16:35:01,60,155,-23,0,968
09/08/99,16:40:01,47,165,-23,0,968
09/08/99,16:45:01,52,189,-23,0,968
09/08/99,16:50:01,50,201,-23,0,968
09/08/99,16:55:01,61,211,-23,0,968
09/08/99,17:00:01,66,188,-23,0,968
09/08/99,17:05:01,79,188,-23,0,968
09/08/99,17:10:01,63,188,-23,0,968
09/08/99,17:15:01,48,188,-23,0,968
09/08/99,17:20:01,51,188,-23,0,968
09/08/99,17:25:01,71,178,-23,0,968
09/08/99,17:30:01,62,179,-23,0,968
09/08/99,17:35:01,61,179,-23,0,968
09/08/99,17:40:01,51,167,-23,0,968
09/08/99,17:45:01,39,178,-23,0,968
09/08/99,17:50:01,39,192,-23,0,968
09/08/99,17:55:01,67,213,-23,0,968
09/08/99,18:00:01,93,213,-23,0,968
09/08/99,18:05:01,60,224,-23,0,968
09/08/99,18:10:01,76,219,-23,0,968
09/08/99,18:15:01,53,220,-23,0,968
09/08/99,18:20:01,18,220,-23,0,968
09/08/99,18:25:01,23,220,-23,0,968
09/08/99,18:30:01,23,217,-23,0,968
09/08/99,18:35:01,13,235,-23,0,968
09/08/99,18:40:01,41,234,-23,0,968
09/08/99,18:45:01,19,218,-23,0,968
09/08/99,18:50:01,42,252,-23,0,968
09/08/99,18:55:01,15,249,-23,0,968
09/08/99,19:00:01,61,211,-23,0,968
09/08/99,19:05:01,34,239,-23,0,968
09/08/99,19:10:01,41,223,-23,0,968
09/08/99,19:15:01,62,205,-23,0,968
09/08/99,19:20:01,30,199,-23,0,968
09/08/99,19:25:01,19,214,-23,0,968
09/08/99,19:30:01,25,240,-23,0,968
09/08/99,19:35:01,38,243,-23,0,968
09/08/99,19:40:01,7,261,-23,0,968
09/08/99,19:45:01,47,214,-23,0,968
09/08/99,19:50:01,31,205,-23,0,968
09/08/99,19:55:01,40,212,-23,0,968
09/08/99,20:00:01,76,208,-23,0,968
09/08/99,20:05:01,112,213,-23,0,968
09/08/99,20:10:01,122,196,-23,0,968
09/08/99,20:15:01,113,198,-23,0,968
09/08/99,20:20:01,176,188,-23,2,968
09/08/99,20:25:01,148,189,-23,2,968
09/08/99,20:30:01,134,189,-23,2,968
09/08/99,20:35:01,119,199,-23,2,968
09/08/99,20:40:01,157,188,-23,2,968
09/08/99,20:45:01,170,188,-23,4,968
09/08/99,20:50:01,208,188,-23,4,968
09/08/99,20:55:01,145,188,-23,6,968
09/08/99,21:00:01,172,187,-23,8,968
09/08/99,21:05:01,190,188,-23,8,968
09/08/99,21:10:01,199,188,-23,8,968
09/08/99,21:15:01,177,198,-23,10,968
09/08/99,21:20:01,160,187,-23,10,968
09/08/99,21:25:01,175,198,-23,12,968
09/08/99,21:30:01,163,198,-23,14,968
09/08/99,21:35:01,163,188,-23,14,968
09/08/99,21:40:01,173,198,-23,16,968
09/08/99,21:45:01,184,188,-23,16,968
09/08/99,21:50:01,171,190,-23,16,968
09/08/99,21:55:01,158,190,-23,18,968
09/08/99,22:00:01,145,200,-23,20,968
09/08/99,22:05:01,139,187,-23,20,968
09/08/99,22:10:01,133,199,-23,24,968
09/08/99,22:15:01,153,189,-23,32,968
09/08/99,22:20:01,138,189,-23,42,968
09/08/99,22:25:01,102,189,-23,46,968
09/08/99,22:30:01,113,191,-23,48,968
09/08/99,22:35:01,162,185,-23,50,968
09/08/99,22:40:01,161,189,-21,52,968
09/08/99,22:45:01,177,195,-21,60,968
09/08/99,22:50:01,185,195,-21,68,968
09/08/99,22:55:01,166,181,-21,70,968
09/08/99,23:00:01,160,176,-21,70,968
09/08/99,23:05:01,173,169,-21,70,968
09/08/99,23:10:01,144,179,-21,76,968
09/08/99,23:15:01,154,169,-21,80,968
09/08/99,23:20:01,198,169,-21,82,968
09/08/99,23:25:01,153,181,-21,82,968
09/08/99,23:30:01,141,180,-21,82,968
09/08/99,23:35:01,130,169,-21,82,968
09/08/99,23:40:01,124,169,-21,84,968
09/08/99,23:45:01,123,169,-21,86,968
09/08/99,23:50:01,116,159,-21,86,968
09/08/99,23:55:01,134,159,-21,86,968
09/09/99,00:00:01,135,159,-21,86,968
